COSMOS 2278

Last updated on Sat Aug 15 2026 00:02:08 GMT+0000 (Coordinated Universal Time)

1 23087U 94023A 26226.38095097 -.00000190 00000+0 -74501-4 0 9999 2 23087 71.0524 205.1670 0007559 163.0098 197.1280 14.14404729667109
UTC large
Height (km)
Speed (km/s)
/
Latitude / Longitude
Inclination (degrees)
Orbital Period (minutes)
Azimuth
Elevation
Range (km)
Doppler Factor

Next 0 passes for location: London (51.5072 / 0.1276)

No passes found over London.
COSMOS 2278